Location: Paderno d�Adda
(45.6667°N, 9.4333°E)
Time: 20:46:04
(UTC+00:00)

Cosmos 1674 - Pass Details

Date: 19 September 2020
Orbit: 494 x 518 km, 82.5° (Epoch: 27 October)

Event Time Altitude Azimuth Distance (km) Brightness Sun altitude
Rises 18:45:24 0° 359° (N) 2,653 6.5 -14.6°
Reaches altitude 10° 18:47:43 10° 10° (N) 1,761 5.5 -15.0°
Maximum altitude 18:51:13 32° 75° (ENE) 905 3.5 -15.6°
Enters shadow 18:51:48 31° 94° (E) 938 3.4 -15.7°
